SHT21B EGJB-EGLL

Flight info

Callsign SHT21B
Flight time 0h 32m
Altitude 19000
Route ORIST L982 ROXOG
Aircraft A20N/M-SDE2E3FGHIRWXY/LB1

Departure

Time 2026-05-07 21:08
Airport Guernsey Airport (EGJB)

Arrival

Time 2026-05-07 21:40
Airport London Heathrow Airport (EGLL)
Time Latitude Longitude Altitude Speed Heading
2026-05-07 20:29 49.43257 -2.59684 328 ft 0 kts 178°
2026-05-07 20:55 49.43260 -2.59684 328 ft 3 kts 178°
2026-05-07 20:56 49.43287 -2.59686 328 ft 4 kts 180°
2026-05-07 20:56 49.43314 -2.59685 328 ft 4 kts 186°
2026-05-07 20:56 49.43340 -2.59677 327 ft 4 kts 202°
2026-05-07 20:56 49.43360 -2.59656 324 ft 3 kts 259°
2026-05-07 20:57 49.43361 -2.59643 326 ft 0 kts 268°
2026-05-07 21:00 49.43361 -2.59644 329 ft 0 kts 268°
2026-05-07 21:00 49.43360 -2.59690 328 ft 9 kts 268°
2026-05-07 21:00 49.43346 -2.59810 325 ft 12 kts 266°
2026-05-07 21:01 49.43341 -2.59941 318 ft 16 kts 266°
2026-05-07 21:01 49.43337 -2.60098 306 ft 13 kts 268°
2026-05-07 21:01 49.43334 -2.60254 296 ft 19 kts 268°
2026-05-07 21:01 49.43328 -2.60466 294 ft 21 kts 267°
2026-05-07 21:02 49.43333 -2.60665 295 ft 15 kts 281°
2026-05-07 21:02 49.43352 -2.60824 302 ft 15 kts 279°
2026-05-07 21:02 49.43364 -2.60968 311 ft 13 kts 270°
2026-05-07 21:02 49.43361 -2.61115 311 ft 15 kts 267°
2026-05-07 21:03 49.43359 -2.61209 312 ft 4 kts 270°
2026-05-07 21:03 49.43359 -2.61224 313 ft 0 kts 276°
2026-05-07 21:06 49.43359 -2.61226 313 ft 1 kts 276°
2026-05-07 21:06 49.43370 -2.61264 312 ft 7 kts 300°
2026-05-07 21:06 49.43422 -2.61348 315 ft 13 kts 331°
2026-05-07 21:07 49.43467 -2.61325 315 ft 1 kts 86°
2026-05-07 21:07 49.43467 -2.61323 315 ft 0 kts 86°
2026-05-07 21:08 49.43473 -2.61053 312 ft 71 kts 88°
2026-05-07 21:08 49.43505 -2.59879 426 ft 137 kts 88°
2026-05-07 21:08 49.43548 -2.58324 1163 ft 149 kts 89°
2026-05-07 21:08 49.43619 -2.56693 2161 ft 154 kts 91°
2026-05-07 21:09 49.43683 -2.54962 2759 ft 174 kts 91°
2026-05-07 21:09 49.43736 -2.52999 3325 ft 194 kts 91°
2026-05-07 21:09 49.43887 -2.50839 3729 ft 218 kts 75°
2026-05-07 21:09 49.44816 -2.48727 4078 ft 258 kts 44°
2026-05-07 21:10 49.46289 -2.46939 4879 ft 276 kts 36°
2026-05-07 21:10 49.47886 -2.45257 6017 ft 281 kts 36°
2026-05-07 21:10 49.49508 -2.43509 7078 ft 286 kts 37°
2026-05-07 21:10 49.51132 -2.41696 8186 ft 289 kts 38°
2026-05-07 21:11 49.52760 -2.39837 9275 ft 295 kts 38°
2026-05-07 21:11 49.54416 -2.37926 10304 ft 301 kts 38°
2026-05-07 21:11 49.58015 -2.33744 11306 ft 347 kts 38°
2026-05-07 21:12 49.59983 -2.31457 12110 ft 356 kts 37°
2026-05-07 21:12 49.61938 -2.29186 13069 ft 360 kts 37°
2026-05-07 21:12 49.63989 -2.26802 13977 ft 366 kts 37°
2026-05-07 21:12 49.66003 -2.24459 14851 ft 369 kts 37°
2026-05-07 21:13 49.68031 -2.22097 15663 ft 374 kts 37°
2026-05-07 21:13 49.70128 -2.19652 16492 ft 378 kts 37°
2026-05-07 21:13 49.72246 -2.17180 17306 ft 384 kts 38°
2026-05-07 21:13 49.74394 -2.14669 18062 ft 390 kts 37°
2026-05-07 21:14 49.76574 -2.12116 18471 ft 395 kts 37°
2026-05-07 21:14 49.78763 -2.09551 18581 ft 393 kts 37°
2026-05-07 21:14 49.80941 -2.06997 18685 ft 395 kts 37°
2026-05-07 21:14 49.83131 -2.04424 18790 ft 395 kts 37°
2026-05-07 21:15 49.85319 -2.01850 18895 ft 395 kts 37°
2026-05-07 21:15 49.87513 -1.99268 19002 ft 396 kts 37°
2026-05-07 21:15 49.89716 -1.96671 19036 ft 396 kts 37°
2026-05-07 21:15 49.91883 -1.94112 19037 ft 397 kts 38°
2026-05-07 21:16 49.94075 -1.91522 19037 ft 396 kts 38°
2026-05-07 21:16 49.96269 -1.88926 19039 ft 397 kts 37°
2026-05-07 21:16 49.98467 -1.86322 19037 ft 398 kts 37°
2026-05-07 21:16 50.00768 -1.83912 19036 ft 399 kts 29°
2026-05-07 21:17 50.03234 -1.81944 19036 ft 397 kts 26°
2026-05-07 21:17 50.05695 -1.80011 19042 ft 397 kts 26°
2026-05-07 21:17 50.08155 -1.78064 19042 ft 396 kts 26°
2026-05-07 21:17 50.10608 -1.76115 19042 ft 398 kts 27°
2026-05-07 21:18 50.12203 -1.74678 19041 ft 397 kts 33°
2026-05-07 21:18 50.14411 -1.72089 19043 ft 397 kts 40°
2026-05-07 21:18 50.16507 -1.69347 19043 ft 397 kts 40°
2026-05-07 21:18 50.18627 -1.66602 19048 ft 397 kts 39°
2026-05-07 21:19 50.20754 -1.63850 19048 ft 397 kts 39°
2026-05-07 21:19 50.22880 -1.61098 19045 ft 396 kts 39°
2026-05-07 21:19 50.25028 -1.58406 19045 ft 396 kts 35°
2026-05-07 21:19 50.27387 -1.56202 19046 ft 396 kts 25°
2026-05-07 21:20 50.29940 -1.54605 19048 ft 395 kts 16°
2026-05-07 21:20 50.32570 -1.53345 19048 ft 395 kts 16°
2026-05-07 21:20 50.35193 -1.52062 19048 ft 395 kts 16°
2026-05-07 21:20 50.37817 -1.50770 19048 ft 395 kts 16°
2026-05-07 21:21 50.40439 -1.49477 19046 ft 395 kts 16°
2026-05-07 21:21 50.43061 -1.48186 19049 ft 395 kts 16°
2026-05-07 21:21 50.45690 -1.46891 19053 ft 395 kts 16°
2026-05-07 21:21 50.48274 -1.45618 19053 ft 395 kts 16°
2026-05-07 21:22 50.50896 -1.44325 19053 ft 395 kts 16°
2026-05-07 21:22 50.53497 -1.42939 19053 ft 395 kts 21°
2026-05-07 21:22 50.55966 -1.41036 19055 ft 396 kts 28°
2026-05-07 21:22 50.58378 -1.38945 19047 ft 396 kts 28°
2026-05-07 21:23 50.60796 -1.36870 19051 ft 395 kts 28°
2026-05-07 21:23 50.63181 -1.34827 19057 ft 395 kts 28°
2026-05-07 21:23 50.65595 -1.32756 19061 ft 395 kts 28°
2026-05-07 21:23 50.68014 -1.30676 19060 ft 395 kts 28°
2026-05-07 21:24 50.70425 -1.28599 18978 ft 396 kts 28°
2026-05-07 21:24 50.72792 -1.26556 18716 ft 394 kts 28°
2026-05-07 21:24 50.75193 -1.24480 18361 ft 392 kts 28°
2026-05-07 21:24 50.77519 -1.22271 17960 ft 388 kts 33°
2026-05-07 21:25 50.79742 -1.19966 17553 ft 386 kts 33°
2026-05-07 21:25 50.81989 -1.17650 17159 ft 384 kts 33°
2026-05-07 21:25 50.84224 -1.15350 16766 ft 382 kts 33°
2026-05-07 21:25 50.86443 -1.13061 16378 ft 380 kts 33°
2026-05-07 21:26 50.88655 -1.10776 16004 ft 378 kts 33°
2026-05-07 21:26 50.90854 -1.08500 15623 ft 376 kts 33°
2026-05-07 21:26 50.93041 -1.06233 15247 ft 374 kts 33°
2026-05-07 21:26 50.95213 -1.03980 14861 ft 372 kts 33°
2026-05-07 21:27 50.97374 -1.01735 14508 ft 370 kts 33°
2026-05-07 21:27 50.99511 -0.99464 14148 ft 368 kts 37°
2026-05-07 21:27 51.01435 -0.96817 13809 ft 366 kts 46°
2026-05-07 21:27 51.03140 -0.93809 13443 ft 364 kts 49°
2026-05-07 21:28 51.04809 -0.90828 13088 ft 359 kts 48°
2026-05-07 21:28 51.06466 -0.87884 12735 ft 353 kts 48°
2026-05-07 21:28 51.08050 -0.85070 12364 ft 338 kts 48°
2026-05-07 21:28 51.09581 -0.82343 12000 ft 323 kts 48°
2026-05-07 21:29 51.11046 -0.79729 11634 ft 309 kts 47°
2026-05-07 21:29 51.12453 -0.77212 11287 ft 303 kts 47°
2026-05-07 21:29 51.13861 -0.74693 10928 ft 304 kts 47°
2026-05-07 21:29 51.15261 -0.72184 10593 ft 302 kts 47°
2026-05-07 21:30 51.16655 -0.69685 10241 ft 303 kts 47°
2026-05-07 21:30 51.18051 -0.67178 9866 ft 301 kts 47°
2026-05-07 21:30 51.19413 -0.64732 9468 ft 299 kts 47°
2026-05-07 21:30 51.20805 -0.62230 9050 ft 295 kts 47°
2026-05-07 21:31 51.22161 -0.59791 8663 ft 292 kts 47°
2026-05-07 21:31 51.23503 -0.57372 8278 ft 289 kts 47°
2026-05-07 21:31 51.24832 -0.54974 7895 ft 287 kts 47°
2026-05-07 21:31 51.26147 -0.52602 7508 ft 284 kts 48°
2026-05-07 21:32 51.27500 -0.50389 7247 ft 270 kts 34°
2026-05-07 21:32 51.29140 -0.49303 7141 ft 247 kts
2026-05-07 21:32 51.30766 -0.49647 7079 ft 241 kts 334°
2026-05-07 21:32 51.32060 -0.51297 7073 ft 240 kts 303°
2026-05-07 21:33 51.32711 -0.53734 7074 ft 240 kts 285°
2026-05-07 21:33 51.33110 -0.56333 7094 ft 240 kts 283°
2026-05-07 21:33 51.33487 -0.58930 7094 ft 240 kts 283°
2026-05-07 21:33 51.33864 -0.61527 7093 ft 240 kts 283°
2026-05-07 21:34 51.34266 -0.64105 6984 ft 235 kts 289°
2026-05-07 21:34 51.34883 -0.66504 6702 ft 231 kts 295°
2026-05-07 21:34 51.35620 -0.68773 6373 ft 229 kts 307°
2026-05-07 21:34 51.36839 -0.70327 6026 ft 225 kts 340°
2026-05-07 21:35 51.38367 -0.70708 5694 ft 222 kts
2026-05-07 21:35 51.39912 -0.70692 5358 ft 222 kts
2026-05-07 21:35 51.41453 -0.70708 5029 ft 221 kts
2026-05-07 21:35 51.42992 -0.70735 4697 ft 221 kts
2026-05-07 21:36 51.44510 -0.70768 4334 ft 216 kts
2026-05-07 21:36 51.45954 -0.70444 4009 ft 205 kts 28°
2026-05-07 21:36 51.46964 -0.69029 3746 ft 188 kts 58°
2026-05-07 21:36 51.47459 -0.67181 3404 ft 173 kts 77°
2026-05-07 21:37 51.47631 -0.65402 3024 ft 159 kts 86°
2026-05-07 21:37 51.47686 -0.63620 2614 ft 156 kts 90°
2026-05-07 21:37 51.47699 -0.61935 2228 ft 147 kts 92°
2026-05-07 21:37 51.47706 -0.60355 1925 ft 137 kts 92°
2026-05-07 21:38 51.47711 -0.58852 1599 ft 133 kts 92°
2026-05-07 21:38 51.47717 -0.57378 1302 ft 130 kts 92°
2026-05-07 21:38 51.47722 -0.55960 1084 ft 126 kts 92°
2026-05-07 21:38 51.47727 -0.54526 882 ft 126 kts 92°
2026-05-07 21:39 51.47731 -0.53125 702 ft 124 kts 92°
2026-05-07 21:39 51.47741 -0.51742 517 ft 124 kts 91°
2026-05-07 21:39 51.47748 -0.50373 357 ft 124 kts 91°
2026-05-07 21:39 51.47752 -0.48989 189 ft 123 kts 91°
2026-05-07 21:40 51.47755 -0.47642 95 ft 115 kts 91°
2026-05-07 21:40 51.47757 -0.46527 90 ft 74 kts 90°
2026-05-07 21:40 51.47759 -0.45938 87 ft 47 kts 90°
2026-05-07 21:40 51.47748 -0.45539 86 ft 26 kts 115°
2026-05-07 21:41 51.47627 -0.45470 86 ft 11 kts 193°
2026-05-07 21:41 51.47597 -0.45581 86 ft 14 kts 268°
2026-05-07 21:41 51.47596 -0.45757 89 ft 18 kts 270°
2026-05-07 21:41 51.47595 -0.45958 87 ft 16 kts 269°
2026-05-07 21:42 51.47595 -0.46152 89 ft 16 kts 269°
2026-05-07 21:42 51.47593 -0.46342 89 ft 19 kts 269°
2026-05-07 21:42 51.47593 -0.46545 86 ft 19 kts 269°
2026-05-07 21:42 51.47594 -0.46755 89 ft 16 kts 269°
2026-05-07 21:43 51.47583 -0.46882 86 ft 8 kts 246°
2026-05-07 21:43 51.47527 -0.46926 88 ft 12 kts 172°
2026-05-07 21:43 51.47436 -0.46889 86 ft 15 kts 166°
2026-05-07 21:43 51.47321 -0.46867 86 ft 18 kts 180°
2026-05-07 21:44 51.47210 -0.46865 86 ft 15 kts 179°
2026-05-07 21:44 51.47099 -0.46864 87 ft 14 kts 180°
2026-05-07 21:44 51.47003 -0.46866 86 ft 8 kts 194°
2026-05-07 21:44 51.46986 -0.46959 87 ft 8 kts 270°
2026-05-07 21:45 51.46986 -0.47013 88 ft 0 kts 270°